Kaltag, AK

11:12 AM AKDT on September 27, 2016 (GMT -0800)
Kaltag

Weather History for PAKV - November, 2012

Change the Weather History Date:

Wednesday, November 7, 2012

  Actual Average (PAGA) Record (PAGA)
Temperature  
Mean Temperature 2 °F -  
Max Temperature 9 °F 14 °F 39 °F (1979)
Min Temperature -5 °F 0 °F -30 °F (1956)
Degree Days  
Heating Degree Days 63    
Moisture  
Dew Point -4 °F    
Average Humidity 83    
Maximum Humidity 88    
Minimum Humidity 76    
Precipitation  
Precipitation 0.00 in - - ()
Sea Level Pressure  
Sea Level Pressure 30.55 in    
Wind  
Wind Speed 0 mph (SW)    
Max Wind Speed 5 mph    
Max Gust Speed -    
Visibility 9 miles    
Events      
Averages and records for this station are not official NWS values.
T = Trace of Precipitation, MM = Missing Value Source: NWS Daily Summary

Daily Weather History Graph

Daily Weather History Graph

Search for Another Location

Airport or City:

Trip Planner

Search our weather history database for the weather conditions in past years. The results will help you decide how hot, cold, wet, or windy it might be!

Date:

Astronomy

Nov. 07, 2012 Rise Set
Actual Time 9:41 AM AKST 4:54 PM AKST
Civil Twilight 8:44 AM AKST 5:51 PM AKST
Nautical Twilight 7:45 AM AKST 6:50 PM AKST
Astronomical Twilight 6:49 AM AKST 7:46 PM AKST
Moon 12:23 AM AKST (11/7) 3:18 PM AKST (11/7)
Length of Visible Light 9h 07m
Length of Day
7h 13m
Last Quarter, 41% of the Moon is Illuminated
Nov 7
Last Quarter
Nov 13
New
Nov 20
First Quarter
Nov 28
Full
Dec 6
Last Quarter

Hourly Weather History & Observations

Time (AKST) Temp. Windchill Dew Point Humidity Pressure Visibility Wind Dir Wind Speed Gust Speed Precip Events Conditions
12:53 AM -2.0 °F - -6.0 °F 83% 30.56 in 10.0 mi Calm Calm - N/A   Overcast
1:53 AM -0.9 °F - -5.1 °F 83% 30.55 in 10.0 mi Calm Calm - N/A   Overcast
3:53 AM 1.9 °F - -2.0 °F 83% 30.56 in 10.0 mi Calm Calm - N/A   Overcast
4:53 AM 3.0 °F - -0.0 °F 87% 30.56 in 10.0 mi Calm Calm - N/A   Overcast
5:53 AM 5.0 °F - 1.0 °F 84% 30.55 in 10.0 mi Calm Calm - N/A   Overcast
6:53 AM 3.0 °F - -0.9 °F 84% 30.56 in 10.0 mi Calm Calm - N/A   Overcast
7:53 AM -0.0 °F - -4.0 °F 83% 30.56 in 10.0 mi Calm Calm - N/A   Overcast
8:53 AM -2.9 °F - -7.1 °F 82% 30.57 in 9.0 mi Calm Calm - N/A   Mostly Cloudy
9:53 AM -4.0 °F - -8.0 °F 83% 30.58 in 10.0 mi Calm Calm - N/A   Partly Cloudy
10:14 AM -4.0 °F - -9.4 °F 78% 30.56 in 1.8 mi Calm Calm - N/A   Haze
10:26 AM -4.0 °F - -7.6 °F 85% 30.56 in 3.0 mi Calm Calm - N/A   Clear
10:53 AM -2.9 °F - -7.1 °F 82% 30.58 in 10.0 mi Calm Calm - N/A   Clear
11:53 AM 1.9 °F - -2.0 °F 83% 30.58 in 10.0 mi Calm Calm - N/A   Clear
12:53 PM 6.1 °F - 1.0 °F 80% 30.58 in 10.0 mi Calm Calm - N/A   Clear
1:53 PM 8.1 °F - 1.9 °F 76% 30.57 in 10.0 mi Calm Calm - N/A   Clear
2:53 PM 9.0 °F - 3.0 °F 77% 30.56 in 10.0 mi Calm Calm - N/A   Clear
3:53 PM 7.0 °F - 3.0 °F 84% 30.55 in 10.0 mi Calm Calm - N/A   Clear
4:53 PM 3.0 °F - -0.9 °F 84% 30.54 in 10.0 mi Calm Calm - N/A   Clear
5:53 PM -0.0 °F - -4.0 °F 83% 30.55 in 10.0 mi Calm Calm - N/A   Clear
6:53 PM -2.9 °F - -7.1 °F 82% 30.55 in 6.0 mi Calm Calm - N/A   Clear
7:32 PM -2.2 °F - -5.8 °F 85% 30.52 in 4.0 mi Calm Calm - N/A   Partly Cloudy
7:53 PM -4.0 °F - -8.0 °F 83% 30.54 in 10.0 mi Calm Calm - N/A   Clear
8:53 PM -5.1 °F - -9.0 °F 83% 30.53 in 10.0 mi Calm Calm - N/A   Clear
9:53 PM -5.1 °F - -9.0 °F 83% 30.52 in 10.0 mi Calm Calm - N/A   Clear
10:53 PM -2.9 °F -13.3 °F -7.1 °F 82% 30.52 in 10.0 mi SW 4.6 mph - N/A   Mostly Cloudy
11:32 PM 1.4 °F - -2.2 °F 85% 30.49 in 10.0 mi Calm Calm - N/A   Overcast
11:53 PM 1.9 °F - -0.9 °F 88% 30.50 in 10.0 mi Calm Calm - N/A   Overcast